Weather History for Novato, CA

Change the Weather History Date:

Friday, November 9, 2012

  Actual Average (KAPC) Record (KAPC)
Temperature  
Mean Temperature 45 °F 53 °F  
Max Temperature 55 °F 66 °F 76 °F (2001)
Min Temperature 35 °F 40 °F 31 °F (2000)
Degree Days  
Heating Degree Days 20    
Month to date heating degree days  
Since 1 July heating degree days  
Cooling Degree Days 0    
Month to date cooling degree days  
Year to date cooling degree days  
Moisture  
Dew Point 40 °F    
Average Humidity 81    
Maximum Humidity 100    
Minimum Humidity 47    
Precipitation  
Precipitation 0.12 in - 1.67 in (1954)
Month to date precipitation  
Year to date precipitation  
Since 1 July precipitation  
Sea Level Pressure  
Sea Level Pressure 29.95 in    
Wind  
Wind Speed 5 mph (NW)    
Max Wind Speed 13 mph    
Max Gust Speed 17 mph    
Visibility 9 miles    
Events Fog , Rain    
T = Trace of Precipitation, MM = Missing Value Source: NWS Daily Summary

Daily Weather History Graph

Daily Weather History Graph

Search for Another Location

Airport:

Trip Planner

Search our weather history database for the weather conditions in past years. The results will help you decide how hot, cold, wet, or windy it might be!

Date:

Astronomy

Nov. 09, 2012 Rise Set
Actual Time 6:45 AM PST 5:02 PM PST
Civil Twilight 6:17 AM PST 5:30 PM PST
Nautical Twilight 5:45 AM PST 6:01 PM PST
Astronomical Twilight 5:14 AM PST 6:32 PM PST
Moon 1:54 AM PST (11/9) 2:15 PM PST (11/9)
Length of Visible Light 11h 12m
Length of Day
10h 17m
Waning Crescent, 22% of the Moon is Illuminated
Nov 9
Waning Crescent
Nov 13
New
Nov 20
First Quarter
Nov 28
Full
Dec 6
Last Quarter

Hourly Weather History & Observations

Time (PST) Temp. Windchill Dew Point Humidity Pressure Visibility Wind Dir Wind Speed Gust Speed Precip Events Conditions
12:15 AM 39.2 °F - 39.2 °F 100% 29.92 in 10.0 mi Calm Calm - N/A   Clear
12:35 AM 37.4 °F - 37.4 °F 100% 29.92 in 10.0 mi Calm Calm - N/A   Partly Cloudy
12:55 AM 39.2 °F - 39.2 °F 100% 29.93 in 10.0 mi Calm Calm - N/A   Unknown
1:35 AM 46.4 °F 42.9 °F 42.8 °F 87% 29.93 in 3.0 mi West 6.9 mph - 0.08 in Rain Light Rain
1:55 AM 44.6 °F 43.1 °F 44.6 °F 100% 29.93 in 5.0 mi SSW 3.5 mph - 0.12 in Rain Light Rain
2:15 AM 44.6 °F 41.4 °F 44.6 °F 100% 29.92 in 10.0 mi SW 5.8 mph - N/A Rain Light Rain
2:35 AM 44.6 °F 41.4 °F 44.6 °F 100% 29.91 in 10.0 mi SSW 5.8 mph - N/A   Mostly Cloudy
2:55 AM 42.8 °F 39.3 °F 42.8 °F 100% 29.92 in 10.0 mi NNW 5.8 mph - N/A   Mostly Cloudy
3:15 AM 41.0 °F 39.0 °F 41.0 °F 100% 29.91 in 10.0 mi North 3.5 mph - N/A   Partly Cloudy
3:55 AM 41.0 °F - 41.0 °F 100% 29.92 in 10.0 mi Calm Calm - N/A   Clear
4:15 AM 41.0 °F - 41.0 °F 100% 29.92 in 10.0 mi Calm Calm - N/A   Clear
4:35 AM 39.2 °F - 39.2 °F 100% 29.92 in 10.0 mi Calm Calm - N/A   Clear
4:55 AM 37.4 °F - 37.4 °F 100% 29.92 in 0.8 mi Calm Calm - N/A   Mist
5:35 AM 37.4 °F 34.9 °F 37.4 °F 100% 29.93 in 9.0 mi NW 3.5 mph - N/A   Clear
5:55 AM 37.4 °F 32.8 °F 37.4 °F 100% 29.93 in 0.2 mi NNW 5.8 mph - N/A Fog Fog
6:15 AM 37.4 °F 32.8 °F 37.4 °F 100% 29.93 in 0.5 mi NNW 5.8 mph - N/A Fog Fog
6:35 AM 37.4 °F - 37.4 °F 100% 29.93 in 9.0 mi Calm Calm - N/A   Clear
6:55 AM 35.6 °F - 35.6 °F 100% 29.94 in 0.2 mi Calm Calm - N/A Fog Fog
7:15 AM 37.4 °F - 37.4 °F 100% 29.94 in 0.2 mi Calm Calm - N/A Fog Fog
7:35 AM 37.4 °F - 37.4 °F 100% 29.95 in 4.0 mi Calm Calm - N/A   Clear
7:55 AM 39.2 °F 35.9 °F 39.2 °F 100% 29.95 in 2.5 mi North 4.6 mph - N/A   Partly Cloudy
8:15 AM 41.0 °F 37.1 °F 41.0 °F 100% 29.96 in 10.0 mi NNE 5.8 mph - N/A   Mostly Cloudy
8:55 AM 42.8 °F 40.1 °F 42.8 °F 100% 29.96 in 10.0 mi NNW 4.6 mph - N/A   Scattered Clouds
9:15 AM 44.6 °F 42.2 °F 44.6 °F 100% 29.96 in 10.0 mi NNE 4.6 mph - N/A   Partly Cloudy
9:35 AM 46.4 °F 45.2 °F 46.4 °F 100% 29.96 in 10.0 mi North 3.5 mph - N/A   Partly Cloudy
9:55 AM 46.4 °F 44.3 °F 46.4 °F 100% 29.96 in 10.0 mi NNE 4.6 mph - N/A   Clear
10:15 AM 50.0 °F - 46.4 °F 87% 29.96 in 10.0 mi North 9.2 mph - N/A   Clear
10:35 AM 50.0 °F - 44.6 °F 82% 29.96 in 10.0 mi NNW 6.9 mph - N/A   Clear
10:55 AM 51.8 °F - 41.0 °F 67% 29.96 in 10.0 mi NNW 10.4 mph - N/A   Clear
11:15 AM 53.6 °F - 42.8 °F 67% 29.96 in 10.0 mi North 9.2 mph - N/A   Clear
11:35 AM 53.6 °F - 41.0 °F 62% 29.95 in 10.0 mi North 5.8 mph - N/A   Clear
11:55 AM 53.6 °F - 39.2 °F 58% 29.95 in 10.0 mi NW 8.1 mph - N/A   Clear
12:15 PM 53.6 °F - 39.2 °F 58% 29.94 in 10.0 mi NNW 9.2 mph - N/A   Clear
12:35 PM 55.4 °F - 39.2 °F 54% 29.94 in 10.0 mi NW 11.5 mph - N/A   Clear
12:55 PM 55.4 °F - 39.2 °F 54% 29.93 in 10.0 mi WNW 9.2 mph - N/A   Clear
1:15 PM 55.4 °F - 39.2 °F 54% 29.93 in 10.0 mi NW 9.2 mph - N/A   Clear
1:35 PM 55.4 °F - 39.2 °F 54% 29.93 in 10.0 mi WNW 6.9 mph - N/A   Clear
1:55 PM 55.4 °F - 39.2 °F 54% 29.92 in 10.0 mi West 10.4 mph - N/A   Clear
2:15 PM 55.4 °F - 39.2 °F 54% 29.92 in 10.0 mi WNW 9.2 mph - N/A   Clear
2:35 PM 55.4 °F - 39.2 °F 54% 29.92 in 10.0 mi West 11.5 mph 17.3 mph N/A   Clear
2:55 PM 55.4 °F - 37.4 °F 51% 29.92 in 10.0 mi WNW 9.2 mph - N/A   Clear
3:15 PM 55.4 °F - 35.6 °F 47% 29.93 in 10.0 mi NW 12.7 mph - N/A   Clear
3:35 PM 53.6 °F - 37.4 °F 54% 29.93 in 10.0 mi WNW 11.5 mph - N/A   Scattered Clouds
3:55 PM 53.6 °F - 37.4 °F 54% 29.93 in 10.0 mi NW 11.5 mph - N/A   Scattered Clouds
4:15 PM 53.6 °F - 39.2 °F 58% 29.94 in 10.0 mi WNW 9.2 mph - N/A   Partly Cloudy
4:35 PM 51.8 °F - 39.2 °F 62% 29.94 in 10.0 mi West 9.2 mph - N/A   Clear
4:55 PM 50.0 °F - 41.0 °F 71% 29.94 in 10.0 mi West 9.2 mph - N/A   Clear
5:15 PM 50.0 °F - 41.0 °F 71% 29.94 in 10.0 mi West 11.5 mph 17.3 mph N/A   Scattered Clouds
5:35 PM 50.0 °F - 41.0 °F 71% 29.94 in 10.0 mi West 12.7 mph - N/A   Partly Cloudy
5:55 PM 48.2 °F - 41.0 °F 76% 29.95 in 10.0 mi West 10.4 mph - N/A   Clear
6:15 PM 50.0 °F - 41.0 °F 71% 29.95 in 10.0 mi WNW 11.5 mph 16.1 mph N/A   Clear
6:35 PM 50.0 °F - 42.8 °F 76% 29.96 in 10.0 mi West 11.5 mph - N/A   Clear
6:55 PM 50.0 °F - 42.8 °F 76% 29.96 in 10.0 mi West 10.4 mph 16.1 mph N/A   Partly Cloudy
7:15 PM 50.0 °F - 42.8 °F 76% 29.96 in 10.0 mi West 10.4 mph - N/A   Partly Cloudy
7:35 PM 50.0 °F - 41.0 °F 71% 29.97 in 10.0 mi West 9.2 mph 16.1 mph N/A   Clear
7:55 PM 48.2 °F - 41.0 °F 76% 29.97 in 10.0 mi NW 5.8 mph - N/A   Clear
8:15 PM 46.4 °F 44.3 °F 41.0 °F 81% 29.98 in 10.0 mi NW 4.6 mph - N/A   Clear
8:35 PM 48.2 °F - 41.0 °F 76% 29.98 in 10.0 mi WNW 8.1 mph 16.1 mph N/A   Clear
8:55 PM 48.2 °F - 41.0 °F 76% 29.98 in 10.0 mi WNW 9.2 mph - N/A   Clear
9:15 PM 48.2 °F - 39.2 °F 71% 29.99 in 10.0 mi WNW 8.1 mph - N/A   Clear
9:35 PM 48.2 °F - 39.2 °F 71% 29.99 in 10.0 mi WNW 9.2 mph - N/A   Clear
9:55 PM 48.2 °F - 39.2 °F 71% 29.99 in 10.0 mi West 5.8 mph - N/A   Clear
10:15 PM 42.8 °F - 41.0 °F 93% 29.99 in 10.0 mi Calm Calm - N/A   Clear
10:35 PM 41.0 °F 36.4 °F 41.0 °F 100% 29.99 in 10.0 mi WNW 6.9 mph - N/A   Clear
10:55 PM 48.2 °F - 39.2 °F 71% 29.99 in 10.0 mi WNW 8.1 mph - N/A   Clear
11:15 PM 44.6 °F - 41.0 °F 87% 29.99 in 10.0 mi Calm Calm - N/A   Clear
11:35 PM 41.0 °F - 41.0 °F 100% 29.99 in 10.0 mi Calm Calm - N/A   Clear
11:55 PM 41.0 °F 39.0 °F 41.0 °F 100% 30.00 in 10.0 mi ENE 3.5 mph - N/A   Clear